Location: Unspecified
(0.0000°N, 0.0000°E)
Time: 07:40:26
(UTC+00:00)

ISS - Pass Details

Date: 09 July 2020
Orbit: 417 x 422 km, 51.6° (Epoch: 06 December)

Event Time Altitude Azimuth Distance (km) Brightness Sun altitude
Rises 07:48:09 0° 339° (NNW) 2,344 0.1 23.7°
Reaches altitude 10° 07:50:22 10° 349° (N) 1,482 -0.7 24.2°
Maximum altitude 07:53:23 32° 55° (NE) 737 -0.2 24.9°
Drops below altitude 10° 07:56:24 10° 120° (ESE) 1,486 -0.4 25.5°
Sets 07:58:37 0° 130° (SE) 2,351 0.4 26.0°
